DW7447 Weather Reports


time (UTC)temp
F
wind
direction
speed
knots
gust
knots
rain 1hr
in
rain 24hr
in
rain mn
in
humidity
%
barometer
mb
20260510144638 54 61 2.6 7.0 0.00 0.27 0.00 55 1018.4
20260510144139 54 0 3.5 7.0 0.00 0.27 0.00 56 1018.5
20260510143638 55 350 3.5 7.8 0.00 0.27 0.00 56 1018.6
20260510143137 55 14 3.5 7.8 0.00 0.27 0.00 56 1018.6
20260510142637 56 24 4.3 7.8 0.00 0.27 0.00 55 1018.7
20260510141137 54 310 0.9 7.8 0.00 0.28 0.00 54 1019.1
20260510140637 55 37 4.3 7.8 0.00 0.28 0.00 55 1019.2
20260510140137 55 130 4.3 7.8 0.00 0.28 0.00 57 1019.2
20260510135638 54 350 4.3 7.8 0.00 0.28 0.00 57 1019.4
20260510135137 53 243 1.7 6.1 0.00 0.29 0.00 52 1019.4
20260510134137 54 341 3.5 7.0 0.00 0.29 0.00 58 1019.6
20260510133638 53 42 1.7 9.6 0.00 0.29 0.00 58 1019.7
20260510133137 53 13 4.3 9.6 0.00 0.29 0.00 58 1019.8
20260510132137 53 65 3.5 11.3 0.00 0.29 0.00 56 1020.0
20260510131638 53 14 6.1 11.3 0.00 0.29 0.00 56 1020.0
20260510131138 53 134 1.7 7.0 0.00 0.29 0.00 55 1020.1
20260510130637 53 141 2.6 7.0 0.00 0.29 0.00 55 1020.2
20260510125637 52 79 1.7 7.0 0.00 0.29 0.00 53 1020.3
20260510125137 53 21 3.5 9.6 0.00 0.29 0.00 56 1020.4
20260510124637 53 38 5.2 9.6 0.00 0.29 0.00 61 1020.4
20260510124137 53 37 1.7 9.6 0.00 0.29 0.00 56 1020.5
20260510123637 54 0 3.5 12.2 0.00 0.29 0.00 59 1020.6
20260510123137 54 47 6.1 12.2 0.00 0.29 0.00 63 1020.8
20260510122637 53 0 2.6 9.6 0.00 0.29 0.00 61 1020.7
20260510122138 53 337 5.2 9.6 0.00 0.29 0.00 60 1020.7
20260510121637 53 1 4.3 9.6 0.00 0.29 0.00 61 1020.8
20260510121137 53 0 3.5 9.6 0.00 0.29 0.00 63 1020.7
20260510120637 52 341 3.5 10.4 0.00 0.29 0.00 61 1020.9
20260510120138 53 24 6.1 10.4 0.00 0.29 0.00 64 1020.9
20260510115637 52 0 5.2 11.3 0.00 0.29 0.00 66 1021.0
20260510115138 53 18 5.2 11.3 0.00 0.29 0.00 64 1021.0
20260510114138 52 337 5.2 10.4 0.00 0.29 0.00 67 1021.1
20260510113638 52 25 4.3 9.6 0.00 0.29 0.00 66 1021.2
20260510113138 52 324 5.2 9.6 0.00 0.29 0.00 65 1021.2
20260510112137 52 18 4.3 9.6 0.00 0.29 0.00 66 1021.4
20260510110637 51 17 5.2 10.4 0.00 0.29 0.00 68 1021.5
20260510110137 51 0 7.0 11.3 0.00 0.29 0.00 67 1021.6
20260510105638 51 0 5.2 11.3 0.00 0.29 0.00 66 1021.7
20260510105138 52 16 6.1 11.3 0.00 0.29 0.00 66 1021.6
20260510104137 52 17 8.7 13.0 0.00 0.29 0.00 68 1021.8
20260510103637 51 47 5.2 12.2 0.00 0.29 0.00 66 1021.8
20260510103137 51 76 5.2 11.3 0.00 0.29 0.00 67 1021.8
20260510102637 52 61 5.2 10.4 0.00 0.29 0.00 67 1021.8
20260510101637 51 31 5.2 11.3 0.00 0.29 0.00 69 1021.9
20260510101138 49 0 4.3 11.3 0.00 0.29 0.00 72 1022.0
20260510100637 49 17 6.1 12.2 0.00 0.29 0.00 72 1022.0
20260510100137 50 0 5.2 13.0 0.00 0.29 0.00 73 1022.1
20260510095636 51 358 7.0 13.0 0.00 0.29 0.00 73 1022.2
20260510095137 51 27 6.1 10.4 0.00 0.29 0.00 71 1022.2
20260510094637 49 23 5.2 11.3 0.00 0.29 0.00 72 1022.2
20260510094136 49 37 5.2 12.2 0.00 0.29 0.00 71 1022.2
20260510093638 49 0 7.0 13.0 0.00 0.29 0.00 71 1022.3
20260510093137 49 341 7.8 13.0 0.00 0.29 0.00 71 1022.4
20260510092638 49 354 6.1 11.3 0.00 0.29 0.00 71 1022.3
20260510092147 49 47 7.8 11.3 0.00 0.29 0.00 73 1022.3
20260510091637 49 63 4.3 11.3 0.00 0.29 0.00 73 1022.2
20260510091138 49 17 6.1 13.0 0.00 0.29 0.00 72 1022.4
20260510090637 48 38 4.3 13.0 0.00 0.29 0.00 72 1022.3
20260510085137 49 0 5.2 13.0 0.00 0.29 0.00 74 1022.5
20260510084637 49 4 3.5 13.0 0.00 0.29 0.00 76 1022.5
20260510084137 48 38 5.2 13.9 0.00 0.29 0.00 76 1022.5
20260510083638 47 80 6.1 13.9 0.00 0.29 0.00 76 1022.5
20260510083137 47 355 5.2 13.9 0.00 0.29 0.00 78 1022.5
20260510082636 47 348 7.0 11.3 0.00 0.29 0.00 78 1022.6
20260510082138 47 30 5.2 13.9 0.00 0.29 0.00 76 1022.5
20260510081637 47 30 8.7 13.9 0.00 0.29 0.00 76 1022.5
20260510080636 46 10 6.1 13.9 0.00 0.29 0.00 79 1022.5
20260510080139 46 7 7.0 13.9 0.00 0.29 0.00 78 1022.5
20260510075637 46 23 7.8 14.8 0.00 0.29 0.00 79 1022.4
20260510075137 46 61 7.0 14.8 0.00 0.30 0.00 79 1022.4
20260510074637 46 18 7.0 12.2 0.00 0.30 0.00 79 1022.5
20260510074137 46 65 5.2 14.8 0.00 0.30 0.00 79 1022.5
20260510072635 45 6 7.8 16.5 0.00 0.30 0.00 79 1022.4
20260510072138 45 10 9.6 16.5 0.00 0.30 0.00 80 1022.4
20260510071636 45 6 6.1 14.8 0.00 0.30 0.00 79 1022.5
20260510071137 45 0 7.0 12.2 0.00 0.30 0.00 79 1022.5
20260510070637 45 4 7.0 15.6 0.00 0.30 0.00 80 1022.6
20260510070137 45 14 9.6 15.6 0.00 0.30 0.00 81 1022.6
20260510065637 45 18 7.8 13.0 0.00 0.30 0.00 81 1022.5
20260510065138 45 3 6.1 16.5 0.00 0.30 0.00 82 1022.5
20260510064637 45 0 9.6 16.5 0.00 0.30 0.00 82 1022.5
20260510064138 44 6 7.8 14.8 0.00 0.30 0.00 83 1022.5
20260510063636 44 31 7.0 14.8 0.00 0.30 0.00 84 1022.6
20260510063137 44 6 7.0 13.9 0.00 0.30 0.00 84 1022.6
20260510062637 43 42 3.5 12.2 0.00 0.30 0.00 84 1022.6
20260510061637 43 11 5.2 12.2 0.00 0.30 0.00 86 1022.6
20260510061137 43 27 4.3 13.9 0.00 0.30 0.00 86 1022.7
20260510060636 42 0 7.0 13.9 0.00 0.30 0.00 87 1022.6
20260510055638 42 0 5.2 11.3 0.00 0.30 0.00 93 1022.6
20260510055136 41 30 5.2 11.3 0.00 0.30 0.00 93 1022.7
20260510054137 40 31 4.3 9.6 0.00 0.30 0.00 95 1022.8
20260510053637 39 10 3.5 7.0 0.00 0.30 0.00 94 1022.8
20260510053138 39 20 2.6 5.2 0.00 0.30 0.00 94 1022.9
20260510052637 39 25 0.9 2.6 0.00 0.31 0.00 94 1022.8
20260510052137 39 59 0.9 3.5 0.00 0.31 0.00 94 1022.9
20260510051636 39 59 0.0 3.5 0.00 0.31 0.00 94 1022.9
20260510051137 39 200 0.0 2.6 0.00 0.31 0.00 93 1022.9
20260510050637 38 123 0.0 1.7 0.00 0.31 0.00 93 1023.0
20260510050137 38 123 0.0 4.3 0.00 0.31 0.00 93 1023.0
20260510045638 38 123 0.0 4.3 0.00 0.31 0.00 93 1023.0
20260510044647 38 86 0.0 2.6 0.00 0.31 0.00 92 1023.1
20260510044138 38 86 0.0 3.5 0.00 0.31 0.00 92 1022.9
20260510043638 38 117 0.9 3.5 0.00 0.31 0.00 92 1023.0
20260510043138 38 117 1.7 3.5 0.00 0.31 0.00 91 1023.0
20260510042636 38 117 0.9 3.5 0.00 0.31 0.00 91 1023.0
20260510042137 39 117 1.7 3.5 0.00 0.31 0.00 91 1023.2
20260510041636 39 117 0.9 3.5 0.00 0.31 0.00 91 1023.1
20260510041136 39 97 0.9 3.5 0.00 0.31 0.00 91 1023.1
20260510040638 39 97 0.9 3.5 0.00 0.31 0.00 91 1023.1
20260510040138 40 55 0.9 3.5 0.00 0.31 0.00 90 1023.1
20260510035636 40 55 0.9 3.5 0.00 0.31 0.00 90 1023.2
20260510035136 40 55 0.0 2.6 0.00 0.31 0.00 90 1023.1
20260510034636 40 55 0.9 4.3 0.00 0.31 0.00 90 1023.2
20260510034137 40 79 1.7 5.2 0.00 0.31 0.00 89 1023.2
20260510033636 40 38 1.7 5.2 0.00 0.31 0.00 89 1023.1
20260510033136 41 152 1.7 5.2 0.00 0.31 0.00 89 1023.2
20260510032638 41 37 2.6 5.2 0.00 0.31 0.00 89 1023.1
20260510032138 41 34 2.6 6.1 0.00 0.31 0.00 89 1023.1
20260510031137 41 25 2.6 6.1 0.00 0.31 0.00 88 1023.2
20260510030637 41 41 2.6 7.8 0.00 0.31 0.00 88 1023.2
20260510030137 41 28 3.5 9.6 0.00 0.31 0.00 88 1023.1
20260510025637 41 24 4.3 9.6 0.00 0.31 0.00 88 1023.2
20260510025137 42 25 4.3 7.8 0.00 0.31 0.00 88 1023.1
20260510024648 42 28 4.3 7.8 0.00 0.31 0.00 88 1023.1
20260510023637 42 8 4.3 7.0 0.00 0.31 0.00 88 1023.1
20260510023137 42 31 4.3 7.8 0.00 0.31 0.00 88 1023.1
20260510022637 42 35 4.3 9.6 0.00 0.31 0.00 88 1023.1
20260510022139 42 24 3.5 9.6 0.00 0.31 0.00 88 1023.1
20260510021136 42 20 3.5 9.6 0.00 0.31 0.00 87 1023.1
20260510020136 42 21 5.2 10.4 0.00 0.31 0.00 88 1023.1
20260510015637 42 24 5.2 11.3 0.00 0.31 0.00 88 1023.1
20260510015137 42 38 4.3 11.3 0.00 0.31 0.00 88 1023.2
20260510014636 42 27 4.3 12.2 0.00 0.32 0.00 88 1023.1
20260510014136 42 20 6.1 12.2 0.00 0.35 0.00 89 1023.2
20260510013637 42 30 5.2 11.3 0.00 0.35 0.00 89 1023.2
20260510013136 42 56 6.1 11.3 0.00 0.35 0.00 90 1023.2
20260510012636 43 44 3.5 9.6 0.00 0.35 0.00 90 1023.2
20260510012138 43 30 4.3 9.6 0.00 0.35 0.00 90 1023.3
20260510011636 43 0 4.3 9.6 0.00 0.35 0.00 90 1023.2
20260510011136 43 8 5.2 9.6 0.00 0.35 0.00 90 1023.3
20260510010636 43 20 3.5 11.3 0.00 0.35 0.00 91 1023.2
20260510010136 43 21 4.3 11.3 0.00 0.35 0.00 91 1023.3
20260510005636 43 7 4.3 9.6 0.00 0.35 0.00 91 1023.3
20260510005137 43 34 5.2 9.6 0.00 0.35 0.00 91 1023.4
20260510004636 43 17 5.2 9.6 0.00 0.35 0.00 91 1023.4
20260510004137 43 0 5.2 9.6 0.00 0.35 0.00 91 1023.5
20260510003637 43 8 4.3 11.3 0.00 0.35 0.00 91 1023.4
20260510003136 43 17 6.1 11.3 0.00 0.35 0.00 91 1023.4
20260510002637 43 18 5.2 9.6 0.00 0.35 0.00 92 1023.4
20260510002136 43 25 4.3 9.6 0.00 0.35 0.00 92 1023.4
20260510001136 43 20 5.2 9.6 0.00 0.35 0.00 92 1023.4
20260510000636 43 353 5.2 9.6 0.00 0.35 0.00 92 1023.6
20260509235636 43 41 4.3 7.8 0.00 0.35 0.00 92 1023.6
20260509235136 43 30 3.5 11.3 0.00 0.35 0.00 92 1023.6
20260509234636 43 25 5.2 11.3 0.00 0.35 0.00 93 1023.5
20260509234136 43 30 5.2 10.4 0.00 0.35 0.00 93 1023.6
20260509233636 43 18 5.2 10.4 0.00 0.35 0.00 93 1023.6
20260509233137 43 32 4.3 10.4 0.00 0.35 0.00 93 1023.7
20260509232637 43 3 3.5 10.4 0.00 0.35 0.00 93 1023.6
20260509232136 43 55 4.3 9.6 0.00 0.35 0.00 93 1023.5
20260509231637 43 10 5.2 9.6 0.00 0.35 0.00 93 1023.6
20260509231136 43 28 5.2 9.6 0.00 0.36 0.00 93 1023.6
20260509230636 44 17 4.3 7.8 0.00 0.36 0.00 93 1023.7
20260509230137 44 31 4.3 9.6 0.00 0.36 0.00 93 1023.6
20260509225636 44 27 4.3 10.4 0.00 0.36 0.36 93 1023.6
20260509225136 44 65 5.2 10.4 0.00 0.36 0.36 93 1023.6
20260509224636 44 38 3.5 10.4 0.00 0.36 0.36 92 1023.6
20260509224148 44 31 5.2 12.2 0.00 0.36 0.36 92 1023.5
20260509223635 44 55 5.2 12.2 0.00 0.36 0.36 92 1023.5
20260509223137 44 34 5.2 10.4 0.00 0.36 0.36 92 1023.6
20260509222637 44 38 6.1 10.4 0.00 0.36 0.36 93 1023.5
20260509222136 44 24 5.2 11.3 0.00 0.36 0.36 93 1023.6
20260509221638 44 51 6.1 13.9 0.00 0.36 0.36 93 1023.7
20260509221137 44 51 6.1 14.8 0.00 0.36 0.36 93 1023.6
20260509220136 44 25 7.8 15.6 0.00 0.36 0.36 93 1023.7
20260509215636 44 0 7.0 13.0 0.00 0.37 0.36 93 1023.8
20260509215135 44 21 6.1 12.2 0.00 0.37 0.36 93 1023.7
20260509214636 44 56 5.2 10.4 0.00 0.38 0.36 93 1023.8
20260509214138 44 65 5.2 10.4 0.00 0.39 0.36 93 1023.8
20260509213636 44 45 6.1 10.4 0.00 0.39 0.36 93 1023.8
20260509213136 44 25 5.2 11.3 0.00 0.39 0.36 93 1023.7
20260509212636 44 58 7.0 14.8 0.00 0.39 0.36 93 1023.7
20260509212136 44 55 7.8 14.8 0.00 0.39 0.36 94 1023.8
20260509211635 45 32 7.0 13.0 0.00 0.39 0.36 94 1023.7
20260509211137 44 14 7.0 13.0 0.00 0.39 0.36 94 1023.8
20260509210637 44 54 7.0 13.0 0.00 0.39 0.36 94 1023.8
20260509210135 44 37 6.1 13.0 0.00 0.39 0.36 93 1023.7
20260509205638 44 20 7.0 12.2 0.00 0.39 0.36 93 1023.7
20260509205137 44 11 6.1 10.4 0.00 0.39 0.36 93 1023.6
20260509203634 44 6 6.1 13.0 0.00 0.40 0.36 93 1023.6
20260509203134 44 23 6.1 13.9 0.00 0.40 0.36 93 1023.6
20260509202635 44 39 9.6 13.9 0.00 0.40 0.36 94 1023.6
20260509202135 44 18 5.2 12.2 0.00 0.41 0.36 94 1023.6
20260509201635 44 30 5.2 14.8 0.00 0.41 0.36 94 1023.6
20260509201135 45 30 7.0 14.8 0.00 0.41 0.36 94 1023.6
20260509200636 45 37 6.1 13.0 0.00 0.41 0.36 94 1023.4
20260509200137 44 35 7.0 13.0 0.00 0.41 0.36 94 1023.5
20260509195636 44 0 7.0 13.0 0.00 0.41 0.36 94 1023.3
20260509195136 44 0 6.1 13.0 0.00 0.41 0.36 94 1023.4
20260509194635 44 8 7.8 13.0 0.00 0.41 0.36 94 1023.4
20260509194137 44 31 7.0 13.0 0.00 0.41 0.36 94 1023.4
20260509193636 44 41 7.0 13.0 0.00 0.41 0.36 94 1023.4
20260509192635 44 3 7.0 14.8 0.00 0.41 0.36 94 1023.3
20260509192136 44 37 5.2 13.0 0.00 0.41 0.36 94 1023.4
20260509191135 44 7 7.8 16.5 0.01 0.41 0.36 94 1023.3
20260509190636 44 27 7.0 18.2 0.01 0.41 0.36 94 1023.2
20260509190136 44 4 7.8 18.2 0.01 0.41 0.36 94 1023.2
20260509185636 44 10 8.7 14.8 0.01 0.40 0.36 94 1023.2
20260509185136 44 28 7.0 15.6 0.01 0.40 0.36 94 1023.2
20260509184637 44 32 6.1 15.6 0.01 0.40 0.36 94 1023.3
20260509184137 44 4 8.7 14.8 0.02 0.40 0.36 95 1023.3
20260509183135 44 8 9.6 13.9 0.02 0.40 0.36 95 1023.4
20260509182637 44 39 7.8 15.6 0.02 0.40 0.36 94 1023.4
20260509182135 44 24 7.8 15.6 0.03 0.40 0.36 95 1023.3
20260509181137 44 6 7.8 14.8 0.02 0.40 0.35 95 1023.3
20260509180636 44 0 7.8 16.5 0.03 0.40 0.35 95 1023.1
20260509180138 44 13 9.6 16.5 0.04 0.40 0.35 95 1023.2
20260509175135 44 24 7.8 18.2 0.05 0.36 0.35 95 1023.1
20260509174636 44 14 7.8 18.2 0.06 0.36 0.35 95 1023.0
20260509174137 44 6 11.3 18.2 0.06 0.36 0.35 95 1023.1
20260509173635 44 17 7.0 15.6 0.07 0.36 0.35 96 1023.0
20260509172636 44 1 8.7 15.6 0.08 0.36 0.34 96 1022.9
20260509171636 44 4 7.0 16.5 0.09 0.36 0.33 97 1022.8
20260509171136 44 23 8.7 18.2 0.09 0.36 0.33 97 1022.8
20260509170136 44 31 13.9 20.0 0.09 0.36 0.31 97 1022.8
20260509164636 45 1 8.7 17.4 0.10 0.27 0.29 97 1022.6
20260509164136 45 38 10.4 17.4 0.10 0.27 0.28 97 1022.5
20260509163635 45 20 7.0 20.0 0.10 0.27 0.28 97 1022.5
20260509163138 45 354 10.4 20.0 0.10 0.27 0.26 97 1022.6
20260509162635 45 25 8.7 17.4 0.10 0.27 0.26 97 1022.5
20260509162137 45 11 12.2 17.4 0.10 0.27 0.25 97 1022.6
20260509161636 45 0 7.8 16.5 0.11 0.27 0.24 97 1022.6
20260509161136 45 0 9.6 16.5 0.11 0.27 0.23 97 1022.5
20260509160636 45 4 8.7 17.4 0.11 0.27 0.23 97 1022.5
20260509160136 45 13 12.2 17.4 0.11 0.27 0.22 97 1022.3
20260509155636 45 357 9.6 17.4 0.12 0.14 0.21 97 1022.3
20260509155135 46 0 9.6 15.6 0.11 0.14 0.20 97 1022.2
20260509154636 46 330 9.6 15.6 0.09 0.14 0.19 97 1022.2
20260509154136 46 6 7.8 17.4 0.09 0.14 0.18 97 1022.0
20260509153636 46 18 8.7 17.4 0.08 0.14 0.17 96 1022.1
20260509153136 46 8 11.3 20.0 0.07 0.14 0.17 97 1022.0
20260509152635 46 0 8.7 20.0 0.06 0.14 0.16 96 1022.0
20260509152137 47 48 9.6 20.9 0.06 0.14 0.15 96 1021.9
20260509151636 47 1 9.6 20.9 0.04 0.14 0.13 96 1021.9
20260509151136 47 0 8.7 15.6 0.04 0.14 0.13 96 1021.8
20260509150636 48 355 7.0 15.6 0.03 0.14 0.12 96 1021.8
20260509145635 49 14 7.8 13.0 0.02 0.13 0.09 97 1021.6